Location: Sternwarte Stuttgart
(48.7670°N, 9.1830°E)
Time: 01:29:01
(UTC+01:00)

Aureole 1 Rocket - Pass Details

Date: 24 January 2019
Orbit: 378 x 1387 km, 73.9° (Epoch: 16 February)

Event Time Altitude Azimuth Distance (km) Brightness Sun altitude
Exits shadow 04:57:40 34° 167° (SSE) 1,423 4.8 -30.4°
Maximum altitude 05:00:05 58° 105° (ESE) 1,116 4.4 -30.0°
Drops below altitude 10° 05:07:09 10° 29° (NNE) 3,080 6.9 -28.8°
Sets 05:10:13 0° 26° (NNE) 4,176 7.7 -28.3°
